Location: Fazenda Monte Alegre
(4.8500°S, 38.0333°W)
Time: 17:25:13
(UTC+00:00)

Meteor 1-21 - Pass Details

Date: 24 September 2020
Orbit: 845 x 887 km, 81.2° (Epoch: 24 October)

Event Time Altitude Azimuth Distance (km) Brightness Sun altitude
Rises 21:08:15 0° 1° (N) 3,390 7.3 -11.0°
Reaches altitude 10° 21:10:40 10° 4° (N) 2,462 6.6 -11.6°
Maximum altitude 21:16:12 67° 86° (E) 923 4.2 -13.0°
Drops below altitude 10° 21:21:49 10° 167° (SSE) 2,498 6.5 -14.4°
Sets 21:24:16 0° 170° (S) 3,445 7.3 -15.0°
